Weather History for Valdosta, GA

Change the Weather History Date:

Saturday, November 3, 2012

  Actual Average Record
Temperature  
Mean Temperature 69 °F -  
Max Temperature 84 °F 73 °F 84 °F (2000)
Min Temperature 55 °F 52 °F 37 °F (1996)
Cooling Degree Days 4    
Growing Degree Days 19 (Base 50)    
Moisture  
Dew Point 57 °F    
Average Humidity 93    
Maximum Humidity 100    
Minimum Humidity 40    
Precipitation  
Precipitation 0.00 in - - ()
Sea Level Pressure  
Sea Level Pressure 30.08 in    
Wind  
Wind Speed 2 mph (WSW)    
Max Wind Speed 8 mph    
Max Gust Speed -    
Visibility 4 miles    
Events      
Averages and records for this station are not official NWS values.
T = Trace of Precipitation, MM = Missing Value Source: NWS Daily Summary

Daily Weather History Graph

Daily Weather History Graph

Search for Another Location

Airport:

Trip Planner

Search our weather history database for the weather conditions in past years. The results will help you decide how hot, cold, wet, or windy it might be!

Date:

Astronomy

Nov. 03, 2012 Rise Set
Actual Time 7:49 AM EDT 6:42 PM EDT
Civil Twilight 7:24 AM EDT 7:07 PM EDT
Nautical Twilight 6:56 AM EDT 7:36 PM EDT
Astronomical Twilight 6:27 AM EDT 8:04 PM EDT
Moon 10:28 PM EDT (11/3) 11:46 AM EDT (11/3)
Length of Visible Light 11h 42m
Length of Day
10h 52m
Waning Gibbous, 80% of the Moon is Illuminated
Nov 3
Waning Gibbous
Nov 6
Last Quarter
Nov 13
New
Nov 20
First Quarter
Nov 28
Full

Hourly Weather History & Observations

Time (EDT) Temp. Heat Index Dew Point Humidity Pressure Visibility Wind Dir Wind Speed Gust Speed Precip Events Conditions
12:55 AM 61.7 °F - 57.6 °F 86% 30.03 in 10.0 mi SW 5.8 mph - N/A   Clear
1:55 AM 61.0 °F - 57.9 °F 90% 30.04 in 10.0 mi WSW 5.8 mph - N/A   Clear
2:55 AM 60.4 °F - 58.3 °F 93% 30.04 in 10.0 mi WSW 6.9 mph - N/A   Clear
3:55 AM 59.7 °F - 58.5 °F 96% 30.03 in 10.0 mi SW 4.6 mph - N/A   Clear
4:55 AM 56.5 °F - 56.1 °F 99% 30.03 in 4.0 mi Calm Calm - N/A   Clear
4:57 AM 57.2 °F - 55.4 °F 94% 30.03 in 2.5 mi Calm Calm - N/A   Clear
4:58 AM 57.2 °F - 55.4 °F 94% 30.03 in 2.0 mi Calm Calm - N/A   Clear
4:59 AM 57.2 °F - 55.4 °F 94% 30.03 in 2.0 mi Calm Calm - N/A   Clear
5:00 AM 57.2 °F - 55.4 °F 94% 30.03 in 1.8 mi Calm Calm - N/A   Clear
5:03 AM 55.4 °F - 55.4 °F 100% 30.03 in 1.5 mi Calm Calm - N/A   Clear
5:04 AM 55.4 °F - 55.4 °F 100% 30.03 in 1.2 mi Calm Calm - N/A   Clear
5:07 AM 55.4 °F - 55.4 °F 100% 30.03 in 1.0 mi Calm Calm - N/A   Clear
5:16 AM 55.4 °F - 55.4 °F 100% 30.04 in 1.2 mi Calm Calm - N/A   Clear
5:17 AM 55.4 °F - 55.4 °F 100% 30.04 in 1.2 mi Calm Calm - N/A   Clear
5:18 AM 55.4 °F - 55.4 °F 100% 30.04 in 1.5 mi Calm Calm - N/A   Clear
5:28 AM 57.2 °F - 55.4 °F 94% 30.04 in 1.2 mi Calm Calm - N/A   Clear
5:32 AM 55.4 °F - 55.4 °F 100% 30.04 in 1.2 mi Calm Calm - N/A   Partly Cloudy
5:35 AM 55.4 °F - 55.4 °F 100% 30.04 in 1.2 mi Calm Calm - N/A   Partly Cloudy
5:36 AM 55.4 °F - 55.4 °F 100% 30.04 in 1.5 mi Calm Calm - N/A   Scattered Clouds
5:41 AM 55.4 °F - 55.4 °F 100% 30.05 in 1.8 mi Calm Calm - N/A   Mostly Cloudy
5:47 AM 55.4 °F - 55.4 °F 100% 30.05 in 1.5 mi Calm Calm - N/A   Mostly Cloudy
5:52 AM 57.2 °F - 57.2 °F 100% 30.05 in 1.5 mi Calm Calm - N/A   Mostly Cloudy
5:55 AM 58.3 °F - 57.9 °F 99% 30.05 in 1.5 mi Calm Calm - N/A   Overcast
5:57 AM 59.0 °F - 59.0 °F 100% 30.05 in 1.2 mi Calm Calm - N/A   Overcast
5:59 AM 59.0 °F - 59.0 °F 100% 30.05 in 1.0 mi Calm Calm - N/A   Mist
6:03 AM 59.0 °F - 59.0 °F 100% 30.06 in 1.0 mi Calm Calm - N/A   Mist
6:05 AM 59.0 °F - 59.0 °F 100% 30.06 in 0.8 mi Calm Calm - N/A   Mist
6:25 AM 59.0 °F - 59.0 °F 100% 30.06 in 0.8 mi WSW 3.5 mph - N/A   Mist
6:36 AM 59.0 °F - 59.0 °F 100% 30.07 in 0.8 mi Calm Calm - N/A   Mist
6:43 AM 59.0 °F - 59.0 °F 100% 30.07 in 1.0 mi Calm Calm - N/A   Mist
6:55 AM 58.1 °F - 58.1 °F 100% 30.07 in 1.0 mi Calm Calm - N/A   Mist
7:15 AM 57.2 °F - 57.2 °F 100% 30.08 in 1.0 mi Calm Calm - N/A   Mist
7:17 AM 57.2 °F - 57.2 °F 100% 30.08 in 1.2 mi West 3.5 mph - N/A   Overcast
7:22 AM 57.2 °F - 57.2 °F 100% 30.08 in 1.5 mi WSW 4.6 mph - N/A   Overcast
7:26 AM 57.2 °F - 57.2 °F 100% 30.08 in 1.8 mi West 4.6 mph - N/A   Overcast
7:27 AM 57.2 °F - 57.2 °F 100% 30.09 in 2.0 mi West 4.6 mph - N/A   Overcast
7:39 AM 57.2 °F - 57.2 °F 100% 30.09 in 2.5 mi Calm Calm - N/A   Overcast
7:48 AM 57.2 °F - 57.2 °F 100% 30.09 in 1.8 mi Calm Calm - N/A   Overcast
7:55 AM 56.3 °F - 56.3 °F 100% 30.09 in 1.5 mi West 3.5 mph - N/A   Overcast
7:56 AM 57.2 °F - 57.2 °F 100% 30.09 in 1.2 mi Calm Calm - N/A   Overcast
8:00 AM 55.4 °F - 55.4 °F 100% 30.10 in 1.0 mi WSW 3.5 mph - N/A   Mist
8:03 AM 55.4 °F - 55.4 °F 100% 30.10 in 1.0 mi WSW 3.5 mph - N/A   Mist
8:05 AM 55.4 °F - 55.4 °F 100% 30.10 in 1.0 mi WSW 3.5 mph - N/A   Mist
8:08 AM 55.4 °F - 55.4 °F 100% 30.10 in 1.2 mi WSW 3.5 mph - N/A   Overcast
8:19 AM 55.4 °F - 55.4 °F 100% 30.10 in 1.5 mi WSW 3.5 mph - N/A   Overcast
8:20 AM 55.4 °F - 55.4 °F 100% 30.11 in 1.2 mi WSW 3.5 mph - N/A   Overcast
8:27 AM 55.4 °F - 55.4 °F 100% 30.11 in 1.0 mi Calm Calm - N/A   Mist
8:31 AM 55.4 °F - 55.4 °F 100% 30.11 in 1.0 mi SW 3.5 mph - N/A   Mist
8:33 AM 55.4 °F - 55.4 °F 100% 30.11 in 1.0 mi Calm Calm - N/A   Mist
8:36 AM 57.2 °F - 57.2 °F 100% 30.11 in 1.0 mi Calm Calm - N/A   Mist
8:37 AM 57.2 °F - 57.2 °F 100% 30.11 in 0.8 mi Calm Calm - N/A   Mist
8:43 AM 57.2 °F - 57.2 °F 100% 30.11 in 0.8 mi Calm Calm - N/A   Mist
8:46 AM 57.2 °F - 57.2 °F 100% 30.11 in 1.0 mi Calm Calm - N/A   Mist
8:48 AM 57.2 °F - 57.2 °F 100% 30.12 in 1.0 mi Calm Calm - N/A   Mist
8:49 AM 57.2 °F - 57.2 °F 100% 30.11 in 1.0 mi Calm Calm - N/A   Mist
8:53 AM 57.2 °F - 57.2 °F 100% 30.12 in 1.2 mi Calm Calm - N/A   Overcast
8:55 AM 57.0 °F - 57.0 °F 100% 30.12 in 1.2 mi Calm Calm - N/A   Overcast
8:58 AM 57.2 °F - 57.2 °F 100% 30.12 in 1.5 mi Calm Calm - N/A   Overcast
9:05 AM 57.2 °F - 57.2 °F 100% 30.12 in 2.0 mi WSW 3.5 mph - N/A   Overcast
9:17 AM 57.2 °F - 57.2 °F 100% 30.12 in 2.5 mi West 3.5 mph - N/A   Overcast
9:19 AM 57.2 °F - 57.2 °F 100% 30.12 in 2.0 mi Calm Calm - N/A   Overcast
9:21 AM 57.2 °F - 57.2 °F 100% 30.12 in 1.8 mi West 4.6 mph - N/A   Overcast
9:35 AM 57.2 °F - 57.2 °F 100% 30.13 in 1.8 mi West 3.5 mph - N/A   Overcast
9:36 AM 57.2 °F - 57.2 °F 100% 30.13 in 2.0 mi West 3.5 mph - N/A   Overcast
9:41 AM 59.0 °F - 59.0 °F 100% 30.13 in 3.0 mi West 3.5 mph - N/A   Overcast
9:43 AM 59.0 °F - 59.0 °F 100% 30.13 in 3.0 mi Calm Calm - N/A   Overcast
9:50 AM 59.0 °F - 59.0 °F 100% 30.12 in 6.0 mi Calm Calm - N/A   Overcast
9:55 AM 59.4 °F - 59.4 °F 100% 30.12 in 9.0 mi Calm Calm - N/A   Overcast
10:05 AM 60.8 °F - 60.8 °F 100% 30.13 in 10.0 mi Calm Calm - N/A   Mostly Cloudy
10:09 AM 60.8 °F - 60.8 °F 100% 30.13 in 10.0 mi Calm Calm - N/A   Scattered Clouds
10:55 AM 66.2 °F - 66.0 °F 99% 30.13 in 10.0 mi Calm Calm - N/A   Clear
11:55 AM 75.7 °F - 57.2 °F 52% 30.12 in 10.0 mi Calm Calm - N/A   Clear
12:55 PM 79.2 °F - 58.3 °F 49% 30.10 in 10.0 mi Variable 4.6 mph - N/A   Clear
1:55 PM 80.6 °F 81.4 °F 60.4 °F 50% 30.07 in 10.0 mi Calm Calm - N/A   Clear
2:55 PM 83.1 °F 82.9 °F 58.6 °F 43% 30.04 in 10.0 mi West 8.1 mph - N/A   Clear
3:55 PM 83.7 °F 83.0 °F 57.0 °F 40% 30.04 in 10.0 mi Variable 3.5 mph - N/A   Clear
4:55 PM 83.7 °F 83.6 °F 59.4 °F 44% 30.03 in 10.0 mi SW 8.1 mph - N/A   Clear
5:55 PM 81.1 °F 81.2 °F 57.4 °F 44% 30.03 in 10.0 mi West 4.6 mph - N/A   Partly Cloudy
6:55 PM 72.0 °F - 59.7 °F 65% 30.04 in 10.0 mi Calm Calm - N/A   Clear
7:55 PM 67.6 °F - 60.3 °F 77% 30.05 in 10.0 mi SSE 3.5 mph - N/A   Clear
8:55 PM 64.4 °F - 59.5 °F 84% 30.06 in 10.0 mi Calm Calm - N/A   Clear
9:55 PM 65.1 °F - 61.5 °F 88% 30.06 in 10.0 mi SW 6.9 mph - N/A   Clear
10:55 PM 68.9 °F - 63.3 °F 82% 30.07 in 10.0 mi SSW 4.6 mph - N/A   Clear
11:55 PM 62.4 °F - 61.0 °F 95% 30.07 in 10.0 mi SSW 5.8 mph - N/A   Clear